Date_Time,Julian_Date,Latitude,Longitude,Instrument_Depth,U,V,Speed,Direction
(yyyy-mm-dd hh:mn:ss UTC),(JD),(+ deg. North),(+ deg. East),(m),(cm/s),(cm/s),(cm/s),(deg True)
1984-10-11 19:30:00 UTC,2445985.312500,29.6633,-93.4786,0090,-3.35,3.72,5.0000,318.0000
1984-10-11 20:00:00 UTC,2445985.333333,29.6633,-93.4786,0090,-2.41,3.19,4.0000,323.0000
1984-10-11 20:30:00 UTC,2445985.354167,29.6633,-93.4786,0090,-1.09,1.68,2.0000,327.0000
1984-10-11 21:00:00 UTC,2445985.375000,29.6633,-93.4786,0090,-0.99,0.16,1.0000,279.0000
1984-10-11 21:30:00 UTC,2445985.395833,29.6633,-93.4786,0090,-1.99,-0.17,2.0000,265.0000
1984-10-11 22:00:00 UTC,2445985.416667,29.6633,-93.4786,0090,-2.72,-1.27,3.0000,245.0000
1984-10-11 22:30:00 UTC,2445985.437500,29.6633,-93.4786,0090,-3.89,-3.15,5.0000,231.0000
1984-10-11 23:00:00 UTC,2445985.458333,29.6633,-93.4786,0090,-4.01,-4.46,6.0000,222.0000
1984-10-11 23:30:00 UTC,2445985.479167,29.6633,-93.4786,0090,-3.61,-4.79,6.0000,217.0000
1984-10-12 00:00:00 UTC,2445985.500000,29.6633,-93.4786,0090,-4.31,-5.52,7.0000,218.0000
1984-10-12 00:30:00 UTC,2445985.520833,29.6633,-93.4786,0090,-3.91,-5.80,7.0000,214.0000
1984-10-12 01:00:00 UTC,2445985.541667,29.6633,-93.4786,0090,-4.24,-6.78,8.0000,212.0000
1984-10-12 01:30:00 UTC,2445985.562500,29.6633,-93.4786,0090,-4.93,-6.30,8.0000,218.0000
1984-10-12 02:00:00 UTC,2445985.583333,29.6633,-93.4786,0090,-5.75,-5.56,8.0000,226.0000
1984-10-12 02:30:00 UTC,2445985.604167,29.6633,-93.4786,0090,-7.37,-5.16,9.0000,235.0000
1984-10-12 03:00:00 UTC,2445985.625000,29.6633,-93.4786,0090,-8.75,-4.85,10.0000,241.0000
1984-10-12 03:30:00 UTC,2445985.645833,29.6633,-93.4786,0090,-8.48,-5.30,10.0000,238.0000
1984-10-12 04:00:00 UTC,2445985.666667,29.6633,-93.4786,0090,-9.33,-5.83,11.0000,238.0000
1984-10-12 04:30:00 UTC,2445985.687500,29.6633,-93.4786,0090,-10.79,-5.26,12.0000,244.0000
1984-10-12 05:00:00 UTC,2445985.708333,29.6633,-93.4786,0090,-11.97,-5.08,13.0000,247.0000
1984-10-12 05:30:00 UTC,2445985.729167,29.6633,-93.4786,0090,-13.81,-5.86,15.0000,247.0000
1984-10-12 06:00:00 UTC,2445985.750000,29.6633,-93.4786,0090,-12.58,-6.14,14.0000,244.0000
1984-10-12 06:30:00 UTC,2445985.770833,29.6633,-93.4786,0090,-10.39,-6.00,12.0000,240.0000
1984-10-12 07:00:00 UTC,2445985.791667,29.6633,-93.4786,0090,-9.89,-4.82,11.0000,244.0000
1984-10-12 07:30:00 UTC,2445985.812500,29.6633,-93.4786,0090,-11.05,-4.69,12.0000,247.0000
1984-10-12 08:00:00 UTC,2445985.833333,29.6633,-93.4786,0090,-12.69,-5.92,14.0000,245.0000
1984-10-12 08:30:00 UTC,2445985.854167,29.6633,-93.4786,0090,-12.79,-5.69,14.0000,246.0000
1984-10-12 09:00:00 UTC,2445985.875000,29.6633,-93.4786,0090,-12.22,-4.45,13.0000,250.0000
1984-10-12 09:30:00 UTC,2445985.895833,29.6633,-93.4786,0090,-10.27,-3.94,11.0000,249.0000
1984-10-12 10:00:00 UTC,2445985.916667,29.6633,-93.4786,0090,-9.06,-4.23,10.0000,245.0000
1984-10-12 10:30:00 UTC,2445985.937500,29.6633,-93.4786,0090,-8.09,-3.95,9.0000,244.0000
1984-10-12 11:00:00 UTC,2445985.958333,29.6633,-93.4786,0090,-7.63,-4.77,9.0000,238.0000
1984-10-12 11:30:00 UTC,2445985.979167,29.6633,-93.4786,0090,-7.43,-6.69,10.0000,228.0000
1984-10-12 12:00:00 UTC,2445986.000000,29.6633,-93.4786,0090,-6.95,-7.19,10.0000,224.0000
1984-10-12 12:30:00 UTC,2445986.020833,29.6633,-93.4786,0090,-7.19,-6.95,10.0000,226.0000
1984-10-12 13:00:00 UTC,2445986.041667,29.6633,-93.4786,0090,-7.77,-6.29,10.0000,231.0000
1984-10-12 13:30:00 UTC,2445986.062500,29.6633,-93.4786,0090,-7.71,-4.64,9.0000,239.0000
1984-10-12 14:00:00 UTC,2445986.083333,29.6633,-93.4786,0090,-7.19,-3.51,8.0000,244.0000
1984-10-12 14:30:00 UTC,2445986.104167,29.6633,-93.4786,0090,-4.53,-2.11,5.0000,245.0000
1984-10-12 15:00:00 UTC,2445986.125000,29.6633,-93.4786,0090,-1.78,-0.91,2.0000,243.0000
1984-10-12 15:30:00 UTC,2445986.145833,29.6633,-93.4786,0090,-0.93,-0.37,1.0000,248.0000
1984-10-12 16:00:00 UTC,2445986.166667,29.6633,-93.4786,0090,0.10,0.99,1.0000,6.0000
1984-10-12 16:30:00 UTC,2445986.187500,29.6633,-93.4786,0090,0.24,0.97,1.0000,14.0000
1984-10-12 17:00:00 UTC,2445986.208333,29.6633,-93.4786,0090,0.00,0.00,0.0000,0.0000
1984-10-12 17:30:00 UTC,2445986.229167,29.6633,-93.4786,0090,-0.19,0.98,1.0000,349.0000
1984-10-12 18:00:00 UTC,2445986.250000,29.6633,-93.4786,0090,-0.31,2.98,3.0000,354.0000
1984-10-12 18:30:00 UTC,2445986.270833,29.6633,-93.4786,0090,-0.35,4.99,5.0000,356.0000
1984-10-12 19:00:00 UTC,2445986.291667,29.6633,-93.4786,0090,-0.90,3.90,4.0000,347.0000
1984-10-12 19:30:00 UTC,2445986.312500,29.6633,-93.4786,0090,-1.64,1.15,2.0000,305.0000
1984-10-12 20:00:00 UTC,2445986.333333,29.6633,-93.4786,0090,-2.99,-0.21,3.0000,266.0000
1984-10-12 20:30:00 UTC,2445986.354167,29.6633,-93.4786,0090,-4.98,-0.44,5.0000,265.0000
1984-10-12 21:00:00 UTC,2445986.375000,29.6633,-93.4786,0090,-4.83,-1.29,5.0000,255.0000
1984-10-12 21:30:00 UTC,2445986.395833,29.6633,-93.4786,0090,-5.52,-2.34,6.0000,247.0000
1984-10-12 22:00:00 UTC,2445986.416667,29.6633,-93.4786,0090,-7.42,-3.00,8.0000,248.0000
1984-10-12 22:30:00 UTC,2445986.437500,29.6633,-93.4786,0090,-8.16,-3.80,9.0000,245.0000
1984-10-12 23:00:00 UTC,2445986.458333,29.6633,-93.4786,0090,-9.34,-3.58,10.0000,249.0000
1984-10-12 23:30:00 UTC,2445986.479167,29.6633,-93.4786,0090,-9.46,-3.26,10.0000,251.0000
1984-10-13 00:00:00 UTC,2445986.500000,29.6633,-93.4786,0090,-8.91,-4.54,10.0000,243.0000
1984-10-13 00:30:00 UTC,2445986.520833,29.6633,-93.4786,0090,-8.91,-4.54,10.0000,243.0000
1984-10-13 01:00:00 UTC,2445986.541667,29.6633,-93.4786,0090,-7.65,-2.34,8.0000,253.0000
1984-10-13 01:30:00 UTC,2445986.562500,29.6633,-93.4786,0090,-3.98,-0.42,4.0000,264.0000
1984-10-13 02:00:00 UTC,2445986.583333,29.6633,-93.4786,0090,-4.73,-1.63,5.0000,251.0000
1984-10-13 02:30:00 UTC,2445986.604167,29.6633,-93.4786,0090,-6.39,-2.85,7.0000,246.0000
1984-10-13 03:00:00 UTC,2445986.625000,29.6633,-93.4786,0090,-5.52,-2.34,6.0000,247.0000
1984-10-13 03:30:00 UTC,2445986.645833,29.6633,-93.4786,0090,-4.70,-1.71,5.0000,250.0000
1984-10-13 04:00:00 UTC,2445986.666667,29.6633,-93.4786,0090,-3.86,-1.04,4.0000,255.0000
1984-10-13 04:30:00 UTC,2445986.687500,29.6633,-93.4786,0090,-2.95,-0.52,3.0000,260.0000
1984-10-13 05:00:00 UTC,2445986.708333,29.6633,-93.4786,0090,-2.00,0.07,2.0000,272.0000
1984-10-13 05:30:00 UTC,2445986.729167,29.6633,-93.4786,0090,0.48,1.94,2.0000,14.0000
1984-10-13 06:00:00 UTC,2445986.750000,29.6633,-93.4786,0090,0.98,2.84,3.0000,19.0000
1984-10-13 06:30:00 UTC,2445986.770833,29.6633,-93.4786,0090,0.26,2.99,3.0000,5.0000
1984-10-13 07:00:00 UTC,2445986.791667,29.6633,-93.4786,0090,-0.24,1.99,2.0000,353.0000
1984-10-13 07:30:00 UTC,2445986.812500,29.6633,-93.4786,0090,-0.10,0.99,1.0000,354.0000
1984-10-13 08:00:00 UTC,2445986.833333,29.6633,-93.4786,0090,-0.00,-0.00,0.0000,225.0000
1984-10-13 08:30:00 UTC,2445986.854167,29.6633,-93.4786,0090,-0.42,-0.91,1.0000,205.0000
1984-10-13 09:00:00 UTC,2445986.875000,29.6633,-93.4786,0090,-0.53,-0.85,1.0000,212.0000
1984-10-13 09:30:00 UTC,2445986.895833,29.6633,-93.4786,0090,-0.00,-0.00,0.0000,189.0000
1984-10-13 10:00:00 UTC,2445986.916667,29.6633,-93.4786,0090,0.31,-1.98,2.0000,171.0000
1984-10-13 10:30:00 UTC,2445986.937500,29.6633,-93.4786,0090,1.32,-2.70,3.0000,154.0000
1984-10-13 11:00:00 UTC,2445986.958333,29.6633,-93.4786,0090,1.75,-3.60,4.0000,154.0000
1984-10-13 11:30:00 UTC,2445986.979167,29.6633,-93.4786,0090,1.04,-5.91,6.0000,170.0000
1984-10-13 12:00:00 UTC,2445987.000000,29.6633,-93.4786,0090,1.46,-6.85,7.0000,168.0000
1984-10-13 12:30:00 UTC,2445987.020833,29.6633,-93.4786,0090,2.51,-6.54,7.0000,159.0000
1984-10-13 13:00:00 UTC,2445987.041667,29.6633,-93.4786,0090,2.47,-7.61,8.0000,162.0000
1984-10-13 13:30:00 UTC,2445987.062500,29.6633,-93.4786,0090,2.07,-7.73,8.0000,165.0000
1984-10-13 14:00:00 UTC,2445987.083333,29.6633,-93.4786,0090,1.93,-6.73,7.0000,164.0000
1984-10-13 14:30:00 UTC,2445987.104167,29.6633,-93.4786,0090,0.31,-5.99,6.0000,177.0000
1984-10-13 15:00:00 UTC,2445987.125000,29.6633,-93.4786,0090,-1.75,-5.74,6.0000,197.0000
1984-10-13 15:30:00 UTC,2445987.145833,29.6633,-93.4786,0090,-2.27,-4.46,5.0000,207.0000
1984-10-13 16:00:00 UTC,2445987.166667,29.6633,-93.4786,0090,-1.88,-3.53,4.0000,208.0000
1984-10-13 16:30:00 UTC,2445987.187500,29.6633,-93.4786,0090,-1.59,-2.54,3.0000,212.0000
1984-10-13 17:00:00 UTC,2445987.208333,29.6633,-93.4786,0090,-1.00,-1.73,2.0000,210.0000
1984-10-13 17:30:00 UTC,2445987.229167,29.6633,-93.4786,0090,-0.52,-0.86,1.0000,211.0000
1984-10-13 18:00:00 UTC,2445987.250000,29.6633,-93.4786,0090,-0.67,-0.74,1.0000,222.0000
1984-10-13 18:30:00 UTC,2445987.270833,29.6633,-93.4786,0090,-0.72,-0.69,1.0000,226.0000
1984-10-13 19:00:00 UTC,2445987.291667,29.6633,-93.4786,0090,-1.36,-1.46,2.0000,223.0000
1984-10-13 19:30:00 UTC,2445987.312500,29.6633,-93.4786,0090,-1.46,-1.36,2.0000,227.0000
1984-10-13 20:00:00 UTC,2445987.333333,29.6633,-93.4786,0090,-1.81,-0.85,2.0000,245.0000
1984-10-13 20:30:00 UTC,2445987.354167,29.6633,-93.4786,0090,-1.84,-0.78,2.0000,247.0000
1984-10-13 21:00:00 UTC,2445987.375000,29.6633,-93.4786,0090,-3.89,-3.15,5.0000,231.0000
1984-10-13 21:30:00 UTC,2445987.395833,29.6633,-93.4786,0090,-6.63,-4.47,8.0000,236.0000
1984-10-13 22:00:00 UTC,2445987.416667,29.6633,-93.4786,0090,-9.71,-5.16,11.0000,242.0000
1984-10-13 22:30:00 UTC,2445987.437500,29.6633,-93.4786,0090,-11.05,-4.69,12.0000,247.0000
1984-10-13 23:00:00 UTC,2445987.458333,29.6633,-93.4786,0090,-12.05,-4.87,13.0000,248.0000
1984-10-13 23:30:00 UTC,2445987.479167,29.6633,-93.4786,0090,-10.96,-4.88,12.0000,246.0000
1984-10-14 00:00:00 UTC,2445987.500000,29.6633,-93.4786,0090,-8.83,-4.69,10.0000,242.0000
1984-10-14 00:30:00 UTC,2445987.520833,29.6633,-93.4786,0090,-7.13,-3.63,8.0000,243.0000
1984-10-14 01:00:00 UTC,2445987.541667,29.6633,-93.4786,0090,-5.87,-1.25,6.0000,258.0000
1984-10-14 01:30:00 UTC,2445987.562500,29.6633,-93.4786,0090,-3.93,-0.76,4.0000,259.0000
1984-10-14 02:00:00 UTC,2445987.583333,29.6633,-93.4786,0090,-5.35,-2.72,6.0000,243.0000
1984-10-14 02:30:00 UTC,2445987.604167,29.6633,-93.4786,0090,-7.19,-3.51,8.0000,244.0000
1984-10-14 03:00:00 UTC,2445987.625000,29.6633,-93.4786,0090,-7.19,-3.51,8.0000,244.0000
1984-10-14 03:30:00 UTC,2445987.645833,29.6633,-93.4786,0090,-6.93,-4.00,8.0000,240.0000
1984-10-14 04:00:00 UTC,2445987.666667,29.6633,-93.4786,0090,-7.63,-4.77,9.0000,238.0000
1984-10-14 04:30:00 UTC,2445987.687500,29.6633,-93.4786,0090,-6.78,-4.24,8.0000,238.0000
1984-10-14 05:00:00 UTC,2445987.708333,29.6633,-93.4786,0090,-5.44,-4.41,7.0000,231.0000
1984-10-14 05:30:00 UTC,2445987.729167,29.6633,-93.4786,0090,-3.39,-6.12,7.0000,209.0000
1984-10-14 06:00:00 UTC,2445987.750000,29.6633,-93.4786,0090,-3.88,-7.00,8.0000,209.0000
1984-10-14 06:30:00 UTC,2445987.770833,29.6633,-93.4786,0090,-6.79,-5.90,9.0000,229.0000
1984-10-14 07:00:00 UTC,2445987.791667,29.6633,-93.4786,0090,-8.39,-5.45,10.0000,237.0000
1984-10-14 07:30:00 UTC,2445987.812500,29.6633,-93.4786,0090,-8.90,-6.47,11.0000,234.0000
1984-10-14 08:00:00 UTC,2445987.833333,29.6633,-93.4786,0090,-12.12,-7.00,14.0000,240.0000
1984-10-14 08:30:00 UTC,2445987.854167,29.6633,-93.4786,0090,-15.87,-6.09,17.0000,249.0000
1984-10-14 09:00:00 UTC,2445987.875000,29.6633,-93.4786,0090,-16.80,-6.45,18.0000,249.0000
1984-10-14 09:30:00 UTC,2445987.895833,29.6633,-93.4786,0090,-14.83,-5.99,16.0000,248.0000
1984-10-14 10:00:00 UTC,2445987.916667,29.6633,-93.4786,0090,-12.98,-5.24,14.0000,248.0000
1984-10-14 10:30:00 UTC,2445987.937500,29.6633,-93.4786,0090,-10.60,-5.63,12.0000,242.0000
1984-10-14 11:00:00 UTC,2445987.958333,29.6633,-93.4786,0090,-7.46,-5.03,9.0000,236.0000
1984-10-14 11:30:00 UTC,2445987.979167,29.6633,-93.4786,0090,-5.95,-5.35,8.0000,228.0000
1984-10-14 12:00:00 UTC,2445988.000000,29.6633,-93.4786,0090,-7.31,-6.82,10.0000,227.0000
1984-10-14 12:30:00 UTC,2445988.020833,29.6633,-93.4786,0090,-7.19,-6.95,10.0000,226.0000
1984-10-14 13:00:00 UTC,2445988.041667,29.6633,-93.4786,0090,-6.55,-4.59,8.0000,235.0000
1984-10-14 13:30:00 UTC,2445988.062500,29.6633,-93.4786,0090,-5.48,-2.44,6.0000,246.0000
1984-10-14 14:00:00 UTC,2445988.083333,29.6633,-93.4786,0090,-2.80,-4.15,5.0000,214.0000
1984-10-14 14:30:00 UTC,2445988.104167,29.6633,-93.4786,0090,-4.54,-8.91,10.0000,207.0000
1984-10-14 15:00:00 UTC,2445988.125000,29.6633,-93.4786,0090,-10.24,-8.00,13.0000,232.0000
1984-10-14 15:30:00 UTC,2445988.145833,29.6633,-93.4786,0090,-14.18,-4.88,15.0000,251.0000
1984-10-14 16:00:00 UTC,2445988.166667,29.6633,-93.4786,0090,-15.04,-5.47,16.0000,250.0000
1984-10-14 16:30:00 UTC,2445988.187500,29.6633,-93.4786,0090,-14.00,-5.38,15.0000,249.0000
1984-10-14 17:00:00 UTC,2445988.208333,29.6633,-93.4786,0090,-12.72,-2.70,13.0000,258.0000
1984-10-14 17:30:00 UTC,2445988.229167,29.6633,-93.4786,0090,-11.88,-1.67,12.0000,262.0000
1984-10-14 18:00:00 UTC,2445988.250000,29.6633,-93.4786,0090,-8.00,0.28,8.0000,272.0000
1984-10-14 18:30:00 UTC,2445988.270833,29.6633,-93.4786,0090,-3.01,3.99,5.0000,323.0000
1984-10-14 19:00:00 UTC,2445988.291667,29.6633,-93.4786,0090,-5.77,1.65,6.0000,286.0000
1984-10-14 19:30:00 UTC,2445988.312500,29.6633,-93.4786,0090,-12.98,-0.68,13.0000,267.0000
1984-10-14 20:00:00 UTC,2445988.333333,29.6633,-93.4786,0090,-15.88,1.95,16.0000,277.0000
1984-10-14 20:30:00 UTC,2445988.354167,29.6633,-93.4786,0090,-12.84,2.03,13.0000,279.0000
1984-10-14 21:00:00 UTC,2445988.375000,29.6633,-93.4786,0090,-2.96,0.47,3.0000,279.0000
1984-10-14 21:30:00 UTC,2445988.395833,29.6633,-93.4786,0090,5.46,-5.85,8.0000,137.0000
1984-10-14 22:00:00 UTC,2445988.416667,29.6633,-93.4786,0090,1.36,-12.93,13.0000,174.0000
1984-10-14 22:30:00 UTC,2445988.437500,29.6633,-93.4786,0090,-12.26,-10.28,16.0000,230.0000
1984-10-14 23:00:00 UTC,2445988.458333,29.6633,-93.4786,0090,-21.25,-5.69,22.0000,255.0000
1984-10-14 23:30:00 UTC,2445988.479167,29.6633,-93.4786,0090,-21.15,-6.06,22.0000,254.0000
1984-10-15 00:00:00 UTC,2445988.500000,29.6633,-93.4786,0090,-17.36,-7.73,19.0000,246.0000
1984-10-15 00:30:00 UTC,2445988.520833,29.6633,-93.4786,0090,-13.12,-7.27,15.0000,241.0000
1984-10-15 01:00:00 UTC,2445988.541667,29.6633,-93.4786,0090,-13.48,-6.58,15.0000,244.0000
1984-10-15 01:30:00 UTC,2445988.562500,29.6633,-93.4786,0090,-15.41,-7.18,17.0000,245.0000
1984-10-15 02:00:00 UTC,2445988.583333,29.6633,-93.4786,0090,-15.15,-7.72,17.0000,243.0000
1984-10-15 02:30:00 UTC,2445988.604167,29.6633,-93.4786,0090,-13.70,-6.10,15.0000,246.0000
1984-10-15 03:00:00 UTC,2445988.625000,29.6633,-93.4786,0090,-12.36,-4.02,13.0000,252.0000
1984-10-15 03:30:00 UTC,2445988.645833,29.6633,-93.4786,0090,-12.29,-4.23,13.0000,251.0000
1984-10-15 04:00:00 UTC,2445988.666667,29.6633,-93.4786,0090,-12.98,-5.24,14.0000,248.0000
1984-10-15 04:30:00 UTC,2445988.687500,29.6633,-93.4786,0090,-13.24,-4.56,14.0000,251.0000
1984-10-15 05:00:00 UTC,2445988.708333,29.6633,-93.4786,0090,-13.39,-4.09,14.0000,253.0000
1984-10-15 05:30:00 UTC,2445988.729167,29.6633,-93.4786,0090,-12.43,-3.80,13.0000,253.0000
1984-10-15 06:00:00 UTC,2445988.750000,29.6633,-93.4786,0090,-13.46,-3.86,14.0000,254.0000
1984-10-15 06:30:00 UTC,2445988.770833,29.6633,-93.4786,0090,-13.39,-4.09,14.0000,253.0000
1984-10-15 07:00:00 UTC,2445988.791667,29.6633,-93.4786,0090,-13.39,-4.09,14.0000,253.0000
1984-10-15 07:30:00 UTC,2445988.812500,29.6633,-93.4786,0090,-12.61,-3.15,13.0000,256.0000
1984-10-15 08:00:00 UTC,2445988.833333,29.6633,-93.4786,0090,-12.50,-3.58,13.0000,254.0000
1984-10-15 08:30:00 UTC,2445988.854167,29.6633,-93.4786,0090,-13.64,-3.15,14.0000,257.0000
1984-10-15 09:00:00 UTC,2445988.875000,29.6633,-93.4786,0090,-15.88,1.95,16.0000,277.0000
1984-10-15 09:30:00 UTC,2445988.895833,29.6633,-93.4786,0090,-15.74,8.73,18.0000,299.0000
1984-10-15 10:00:00 UTC,2445988.916667,29.6633,-93.4786,0090,-13.12,7.27,15.0000,299.0000
1984-10-15 10:30:00 UTC,2445988.937500,29.6633,-93.4786,0090,-8.95,0.94,9.0000,276.0000
1984-10-15 11:00:00 UTC,2445988.958333,29.6633,-93.4786,0090,-6.73,-1.93,7.0000,254.0000
1984-10-15 11:30:00 UTC,2445988.979167,29.6633,-93.4786,0090,-7.00,-3.88,8.0000,241.0000
1984-10-15 12:00:00 UTC,2445989.000000,29.6633,-93.4786,0090,-8.17,-7.36,11.0000,228.0000
1984-10-15 12:30:00 UTC,2445989.020833,29.6633,-93.4786,0090,-9.66,-8.70,13.0000,228.0000
1984-10-15 13:00:00 UTC,2445989.041667,29.6633,-93.4786,0090,-9.71,-7.05,12.0000,234.0000
1984-10-15 13:30:00 UTC,2445989.062500,29.6633,-93.4786,0090,-10.65,-7.46,13.0000,235.0000
1984-10-15 14:00:00 UTC,2445989.083333,29.6633,-93.4786,0090,-10.52,-7.64,13.0000,234.0000
1984-10-15 14:30:00 UTC,2445989.104167,29.6633,-93.4786,0090,-8.78,-6.62,11.0000,233.0000
1984-10-15 15:00:00 UTC,2445989.125000,29.6633,-93.4786,0090,-8.57,-5.15,10.0000,239.0000
1984-10-15 15:30:00 UTC,2445989.145833,29.6633,-93.4786,0090,-9.06,-4.23,10.0000,245.0000
1984-10-15 16:00:00 UTC,2445989.166667,29.6633,-93.4786,0090,-9.40,-3.42,10.0000,250.0000
1984-10-15 16:30:00 UTC,2445989.187500,29.6633,-93.4786,0090,-10.57,-3.03,11.0000,254.0000
1984-10-15 17:00:00 UTC,2445989.208333,29.6633,-93.4786,0090,-9.66,-2.59,10.0000,255.0000
1984-10-15 17:30:00 UTC,2445989.229167,29.6633,-93.4786,0090,-6.76,-1.81,7.0000,255.0000
1984-10-15 18:00:00 UTC,2445989.250000,29.6633,-93.4786,0090,-2.98,-0.31,3.0000,264.0000
1984-10-15 18:30:00 UTC,2445989.270833,29.6633,-93.4786,0090,-1.36,1.46,2.0000,317.0000
1984-10-15 19:00:00 UTC,2445989.291667,29.6633,-93.4786,0090,-0.55,1.92,2.0000,344.0000
1984-10-15 19:30:00 UTC,2445989.312500,29.6633,-93.4786,0090,-1.27,2.72,3.0000,335.0000
1984-10-15 20:00:00 UTC,2445989.333333,29.6633,-93.4786,0090,-2.35,3.24,4.0000,324.0000
1984-10-15 20:30:00 UTC,2445989.354167,29.6633,-93.4786,0090,-3.41,3.66,5.0000,317.0000
1984-10-15 21:00:00 UTC,2445989.375000,29.6633,-93.4786,0090,-3.60,3.47,5.0000,314.0000
1984-10-15 21:30:00 UTC,2445989.395833,29.6633,-93.4786,0090,-2.35,3.24,4.0000,324.0000
1984-10-15 22:00:00 UTC,2445989.416667,29.6633,-93.4786,0090,-1.03,2.82,3.0000,340.0000
1984-10-15 22:30:00 UTC,2445989.437500,29.6633,-93.4786,0090,-1.26,1.55,2.0000,321.0000
1984-10-15 23:00:00 UTC,2445989.458333,29.6633,-93.4786,0090,-1.95,0.45,2.0000,283.0000
1984-10-15 23:30:00 UTC,2445989.479167,29.6633,-93.4786,0090,-3.00,0.05,3.0000,271.0000
1984-10-16 00:00:00 UTC,2445989.500000,29.6633,-93.4786,0090,-2.97,-0.42,3.0000,262.0000
1984-10-16 00:30:00 UTC,2445989.520833,29.6633,-93.4786,0090,-3.28,-2.29,4.0000,235.0000
1984-10-16 01:00:00 UTC,2445989.541667,29.6633,-93.4786,0090,-4.17,-4.32,6.0000,224.0000
1984-10-16 01:30:00 UTC,2445989.562500,29.6633,-93.4786,0090,-5.12,-4.77,7.0000,227.0000
1984-10-16 02:00:00 UTC,2445989.583333,29.6633,-93.4786,0090,-5.59,-4.21,7.0000,233.0000
1984-10-16 02:30:00 UTC,2445989.604167,29.6633,-93.4786,0090,-6.47,-4.70,8.0000,234.0000
1984-10-16 03:00:00 UTC,2445989.625000,29.6633,-93.4786,0090,-5.75,-5.56,8.0000,226.0000
1984-10-16 03:30:00 UTC,2445989.645833,29.6633,-93.4786,0090,-4.90,-7.55,9.0000,213.0000
1984-10-16 04:00:00 UTC,2445989.666667,29.6633,-93.4786,0090,-2.60,-7.56,8.0000,199.0000
1984-10-16 04:30:00 UTC,2445989.687500,29.6633,-93.4786,0090,-1.10,-6.91,7.0000,189.0000
1984-10-16 05:00:00 UTC,2445989.708333,29.6633,-93.4786,0090,-0.14,-4.00,4.0000,182.0000
1984-10-16 05:30:00 UTC,2445989.729167,29.6633,-93.4786,0090,1.06,-1.70,2.0000,148.0000
1984-10-16 06:00:00 UTC,2445989.750000,29.6633,-93.4786,0090,2.62,1.45,3.0000,61.0000
1984-10-16 06:30:00 UTC,2445989.770833,29.6633,-93.4786,0090,4.59,5.28,7.0000,41.0000
1984-10-16 07:00:00 UTC,2445989.791667,29.6633,-93.4786,0090,4.64,7.71,9.0000,31.0000
1984-10-16 07:30:00 UTC,2445989.812500,29.6633,-93.4786,0090,4.09,8.02,9.0000,27.0000
1984-10-16 08:00:00 UTC,2445989.833333,29.6633,-93.4786,0090,4.12,6.86,8.0000,31.0000
1984-10-16 08:30:00 UTC,2445989.854167,29.6633,-93.4786,0090,5.79,6.89,9.0000,40.0000
1984-10-16 09:00:00 UTC,2445989.875000,29.6633,-93.4786,0090,7.19,5.42,9.0000,53.0000
1984-10-16 09:30:00 UTC,2445989.895833,29.6633,-93.4786,0090,7.25,3.38,8.0000,65.0000
1984-10-16 10:00:00 UTC,2445989.916667,29.6633,-93.4786,0090,5.56,2.25,6.0000,68.0000
1984-10-16 10:30:00 UTC,2445989.937500,29.6633,-93.4786,0090,6.62,2.28,7.0000,71.0000
1984-10-16 11:00:00 UTC,2445989.958333,29.6633,-93.4786,0090,7.92,1.11,8.0000,82.0000
1984-10-16 11:30:00 UTC,2445989.979167,29.6633,-93.4786,0090,8.97,-0.78,9.0000,95.0000
1984-10-16 12:00:00 UTC,2445990.000000,29.6633,-93.4786,0090,7.56,-2.60,8.0000,109.0000
1984-10-16 12:30:00 UTC,2445990.020833,29.6633,-93.4786,0090,5.20,-4.68,7.0000,132.0000
1984-10-16 13:00:00 UTC,2445990.041667,29.6633,-93.4786,0090,1.46,-6.85,7.0000,168.0000
1984-10-16 13:30:00 UTC,2445990.062500,29.6633,-93.4786,0090,-2.63,-8.61,9.0000,197.0000
1984-10-16 14:00:00 UTC,2445990.083333,29.6633,-93.4786,0090,-6.02,-7.99,10.0000,217.0000
1984-10-16 14:30:00 UTC,2445990.104167,29.6633,-93.4786,0090,-7.91,-7.64,11.0000,226.0000
1984-10-16 15:00:00 UTC,2445990.125000,29.6633,-93.4786,0090,-8.04,-7.50,11.0000,227.0000
1984-10-16 15:30:00 UTC,2445990.145833,29.6633,-93.4786,0090,-6.79,-5.90,9.0000,229.0000
1984-10-16 16:00:00 UTC,2445990.166667,29.6633,-93.4786,0090,-5.20,-4.68,7.0000,228.0000
1984-10-16 16:30:00 UTC,2445990.187500,29.6633,-93.4786,0090,-4.68,-5.20,7.0000,222.0000
1984-10-16 17:00:00 UTC,2445990.208333,29.6633,-93.4786,0090,-6.47,-6.25,9.0000,226.0000
1984-10-16 17:30:00 UTC,2445990.229167,29.6633,-93.4786,0090,-9.12,-6.15,11.0000,236.0000
1984-10-16 18:00:00 UTC,2445990.250000,29.6633,-93.4786,0090,-10.60,-5.63,12.0000,242.0000
1984-10-16 18:30:00 UTC,2445990.270833,29.6633,-93.4786,0090,-10.96,-4.88,12.0000,246.0000
1984-10-16 19:00:00 UTC,2445990.291667,29.6633,-93.4786,0090,-12.14,-4.66,13.0000,249.0000
1984-10-16 19:30:00 UTC,2445990.312500,29.6633,-93.4786,0090,-13.31,-4.33,14.0000,252.0000
1984-10-16 20:00:00 UTC,2445990.333333,29.6633,-93.4786,0090,-13.46,-3.86,14.0000,254.0000
1984-10-16 20:30:00 UTC,2445990.354167,29.6633,-93.4786,0090,-11.20,-4.30,12.0000,249.0000
1984-10-16 21:00:00 UTC,2445990.375000,29.6633,-93.4786,0090,-8.57,-5.15,10.0000,239.0000
1984-10-16 21:30:00 UTC,2445990.395833,29.6633,-93.4786,0090,-8.66,-5.00,10.0000,240.0000
1984-10-16 22:00:00 UTC,2445990.416667,29.6633,-93.4786,0090,-10.52,-3.22,11.0000,253.0000
1984-10-16 22:30:00 UTC,2445990.437500,29.6633,-93.4786,0090,-11.91,-1.46,12.0000,263.0000
1984-10-16 23:00:00 UTC,2445990.458333,29.6633,-93.4786,0090,-11.95,-1.05,12.0000,265.0000
1984-10-16 23:30:00 UTC,2445990.479167,29.6633,-93.4786,0090,-12.90,-1.58,13.0000,263.0000
1984-10-17 00:00:00 UTC,2445990.500000,29.6633,-93.4786,0090,-14.67,-3.12,15.0000,258.0000
1984-10-17 00:30:00 UTC,2445990.520833,29.6633,-93.4786,0090,-16.50,-4.11,17.0000,256.0000
1984-10-17 01:00:00 UTC,2445990.541667,29.6633,-93.4786,0090,-15.76,-2.78,16.0000,260.0000
1984-10-17 01:30:00 UTC,2445990.562500,29.6633,-93.4786,0090,-14.67,-3.12,15.0000,258.0000
1984-10-17 02:00:00 UTC,2445990.583333,29.6633,-93.4786,0090,-13.81,-5.86,15.0000,247.0000
1984-10-17 02:30:00 UTC,2445990.604167,29.6633,-93.4786,0090,-13.24,-7.04,15.0000,242.0000
1984-10-17 03:00:00 UTC,2445990.625000,29.6633,-93.4786,0090,-14.13,-7.51,16.0000,242.0000
1984-10-17 03:30:00 UTC,2445990.645833,29.6633,-93.4786,0090,-14.26,-7.26,16.0000,243.0000
1984-10-17 04:00:00 UTC,2445990.666667,29.6633,-93.4786,0090,-13.70,-6.10,15.0000,246.0000
1984-10-17 04:30:00 UTC,2445990.687500,29.6633,-93.4786,0090,-13.16,-4.79,14.0000,250.0000
1984-10-17 05:00:00 UTC,2445990.708333,29.6633,-93.4786,0090,-12.29,-4.23,13.0000,251.0000
1984-10-17 05:30:00 UTC,2445990.729167,29.6633,-93.4786,0090,-11.05,-4.69,12.0000,247.0000
1984-10-17 06:00:00 UTC,2445990.750000,29.6633,-93.4786,0090,-10.79,-5.26,12.0000,244.0000
1984-10-17 06:30:00 UTC,2445990.770833,29.6633,-93.4786,0090,-10.88,-5.07,12.0000,245.0000
1984-10-17 07:00:00 UTC,2445990.791667,29.6633,-93.4786,0090,-9.80,-4.99,11.0000,243.0000
1984-10-17 07:30:00 UTC,2445990.812500,29.6633,-93.4786,0090,-8.57,-5.15,10.0000,239.0000
1984-10-17 08:00:00 UTC,2445990.833333,29.6633,-93.4786,0090,-8.91,-4.54,10.0000,243.0000